Location: Sabalos
(43.2860°N, 0.1414°E)
Time: 04:24:37
(UTC+00:00)

Cosmos 2344 - Pass Details

Date: 05 July 2020
Orbit: 1249 x 2993 km, 63.3° (Epoch: 06 August)

Event Time Altitude Azimuth Distance (km) Brightness Sun altitude
Exits shadow 22:16:04 28° 170° (S) 2,148 4.2 -19.5°
Maximum altitude 22:19:33 46° 116° (ESE) 1,622 3.8 -19.8°
Drops below altitude 10° 22:26:50 10° 46° (NE) 3,371 6.0 -20.3°
Sets 22:29:55 0° 40° (NE) 4,471 6.8 -20.6°
